Home > Time Zones > World Clock > Weather > India > Siwan > Past weeks

Flag for India Weather past 2 weeks in Siwan, Bihar, India

Now
86 °F

Broken clouds.


Feels Like: 102 °F
Forecast: 80 / 89 °F
Wind: 7 mph from North

Location: Varanasi / Babatpur

Current Time: Jul 7, 2015 at 10:34:46 AM

Latest Report: Jul 7, 2015 at 9:00 AM


Visibility: 2 mi

Pressure: 29.53 "Hg

Humidity: 84%

Dew point: 81 °F

Location of SiwanLocation

Historic Weather in Siwan — Graph

°F

Siwan temperature yesterday

Maximum temperature yesterday: 91 °F (at 2:00 PM)
Minimum temperature yesterday: 82 °F (at 12:00 AM)
Average temperature yesterday: 85 °F

Past Weeks' High & Low Weather Summary

 TemperatureHumidityPressure
High104 °F (Jun 24, 2:00 PM)100% (Jun 28, 1:00 PM)29.68 "Hg (Jun 28, 1:00 PM)
Low75 °F (Jun 29, 12:00 AM)38% (Jun 24, 2:00 PM)29.30 "Hg (Jun 22, 5:00 PM)
Average88 °F69%29.51 "Hg
* Reported Jun 22 9:00 AM — Jul 7 9:00 AM, Siwan, Weather by CustomWeather, © 2015

Note: Actual official high and low records may vary slightly from our data, if they occured in-between our weather recording intervals... More about our weather records

Advertising

Siwan weather history for previous 24 hours

 ConditionsComfort  
Time TempWeatherWind HumidityBarometerVisibility
9:00 AM
Tue, Jul 7
86 °FBroken clouds.7 mph84%29.53 "Hg2 mi
8:00 AM84 °FBroken clouds.6 mph79%29.50 "Hg2 mi
7:00 AM82 °FBroken clouds.3 mph89%29.50 "Hg2 mi
6:00 AM81 °FBroken clouds.3 mph94%29.50 "Hg2 mi
5:00 AM81 °FPartly cloudy.2 mph94%29.47 "Hg2 mi
4:00 AM81 °FPassing clouds.3 mph94%29.47 "Hg2 mi
12:00 AM82 °FPassing clouds.No wind94%29.53 "Hg2 mi
10:00 PM
Mon, Jul 6
82 °FRain. Passing clouds.2 mph94%29.53 "Hg2 mi
9:00 PM82 °FPassing clouds.No wind94%29.50 "Hg2 mi
8:00 PM82 °FPassing clouds.No wind94%29.50 "Hg2 mi
7:00 PM84 °FBroken clouds.3 mph84%29.50 "Hg2 mi
6:00 PM84 °FBroken clouds.1 mph89%29.45 "Hg3 mi
3:00 PM91 °FScattered clouds.No wind67%29.47 "Hg3 mi
2:00 PM91 °FHaze.6 mph67%29.47 "Hg3 mi
12:00 PM88 °FBroken clouds.2 mph79%29.53 "Hg3 mi
11:00 AM90 °FBroken clouds.6 mph67%29.53 "Hg3 mi
Weather by CustomWeather, © 2015

See weather overviewHow to use our weather pages